EW8409 Weather Reports


time (UTC)temp
F
wind
direction
speed
knots
gust
knots
rain 1hr
in
rain 24hr
in
rain mn
in
humidity
%
barometer
mb
20260509090105 38 281 0.0 0.0 0.00 0.06 0.00 91 1008.3
20260509084601 38 282 0.0 0.0 0.00 0.06 0.00 91 1008.3
20260509083101 38 282 0.0 0.0 0.00 0.06 0.00 91 1008.4
20260509081552 38 282 0.0 0.0 0.00 0.06 0.00 91 1008.6
20260509080054 38 282 0.0 0.0 0.00 0.06 0.00 90 1008.7
20260509074553 38 282 0.0 0.0 0.00 0.06 0.00 90 1008.7
20260509073051 38 281 0.0 0.0 0.00 0.06 0.00 90 1008.9
20260509071547 38 282 0.0 0.0 0.00 0.06 0.00 90 1009.0
20260509070044 38 282 0.0 0.0 0.00 0.06 0.00 91 1009.1
20260509064542 38 309 0.0 0.0 0.00 0.06 0.00 90 1009.2
20260509063039 38 309 0.0 0.0 0.00 0.06 0.00 90 1009.5
20260509061537 38 331 0.0 0.0 0.00 0.06 0.00 90 1009.6
20260509060040 38 331 0.0 0.0 0.00 0.06 0.00 89 1009.8
20260509054533 39 331 0.0 0.0 0.00 0.06 0.00 89 1009.8
20260509053041 39 331 0.0 0.0 0.00 0.06 0.00 90 1010.0
20260509051528 39 331 0.0 0.0 0.00 0.06 0.00 90 1010.1
20260509050026 39 331 0.0 0.0 0.00 0.06 0.00 90 1010.2
20260509044525 39 331 0.0 0.0 0.00 0.07 0.00 89 1010.3
20260509043023 40 339 0.0 0.0 0.00 0.07 0.00 89 1010.5
20260509041521 40 339 0.0 0.0 0.00 0.07 0.00 88 1010.6
20260509040027 41 339 0.0 0.0 0.00 0.07 0.00 86 1010.7
20260509034518 41 339 0.0 0.0 0.00 0.07 0.07 86 1010.7
20260509033017 41 339 0.0 0.0 0.00 0.07 0.07 85 1010.7
20260509031517 42 339 0.0 0.0 0.00 0.07 0.07 85 1010.8
20260509030031 42 339 0.0 0.0 0.00 0.07 0.07 83 1010.8
20260509024516 42 339 0.0 0.0 0.00 0.07 0.07 83 1010.9
20260509023015 43 340 0.0 0.0 0.00 0.07 0.07 80 1010.9
20260509021514 43 340 0.0 0.0 0.00 0.07 0.07 80 1010.8
20260509020013 44 340 0.0 0.0 0.00 0.07 0.07 78 1010.8
20260509014513 44 340 0.0 0.0 0.00 0.07 0.07 75 1010.8
20260509013012 45 340 0.0 0.0 0.00 0.07 0.07 74 1010.8
20260509011611 46 340 0.0 0.0 0.00 0.07 0.07 73 1010.7
20260509010010 47 340 0.0 0.0 0.00 0.07 0.07 71 1010.5
20260509004513 48 340 0.0 0.0 0.00 0.07 0.07 68 1010.2
20260509003012 49 340 0.0 0.0 0.00 0.07 0.07 64 1010.0
20260509001512 50 340 0.0 0.0 0.00 0.07 0.07 62 1010.0
20260509000008 51 340 0.0 0.0 0.00 0.07 0.07 61 1009.9
20260508234512 52 340 0.0 0.0 0.00 0.07 0.07 58 1009.9
20260508233008 53 340 0.0 0.0 0.00 0.07 0.07 54 1009.7
20260508231507 53 340 0.0 0.0 0.00 0.07 0.07 53 1009.7
20260508230005 54 6 0.0 0.0 0.00 0.07 0.07 50 1009.8
20260508224505 54 8 0.0 0.0 0.00 0.07 0.07 48 1009.8
20260508223005 55 295 0.0 0.0 0.00 0.07 0.07 47 1009.8
20260508221504 55 30 0.0 0.0 0.00 0.07 0.07 48 1009.8
20260508220003 55 64 0.0 0.0 0.00 0.07 0.07 45 1009.8
20260508214503 55 6 0.0 0.0 0.00 0.07 0.07 44 1009.9
20260508213006 55 320 0.0 0.0 0.00 0.07 0.07 45 1010.0
20260508211500 56 341 0.0 0.0 0.00 0.07 0.07 46 1010.1
20260508210000 55 65 0.0 0.0 0.00 0.07 0.07 47 1010.1
20260508204558 54 56 0.0 0.0 0.00 0.07 0.07 49 1010.2
20260508203107 54 23 0.0 0.0 0.00 0.07 0.07 50 1010.5
20260508201602 54 47 0.0 0.0 0.00 0.07 0.07 52 1010.6
20260508200053 55 27 0.0 0.9 0.00 0.07 0.07 42 1010.6
20260508194553 56 165 0.0 0.9 0.00 0.07 0.07 43 1010.6
20260508193052 55 39 0.0 0.9 0.00 0.07 0.07 43 1010.9
20260508191551 57 206 0.0 0.0 0.00 0.07 0.07 40 1011.1
20260508190049 56 52 0.0 0.0 0.00 0.07 0.07 42 1011.1
20260508184549 57 230 0.0 0.0 0.00 0.07 0.07 44 1011.2
20260508183047 57 139 0.0 0.9 0.00 0.07 0.07 42 1011.3
20260508181544 55 260 0.0 0.9 0.00 0.07 0.07 51 1011.3
20260508180042 55 160 0.0 0.0 0.00 0.07 0.07 54 1011.4
20260508174546 56 158 0.0 0.0 0.00 0.07 0.07 51 1011.7
20260508173038 55 168 0.0 0.9 0.00 0.07 0.07 54 1011.7
20260508171534 54 214 0.0 0.9 0.00 0.07 0.07 54 1011.9
20260508170030 52 210 0.0 0.0 0.00 0.07 0.07 58 1012.0
20260508164527 51 63 0.0 2.6 0.00 0.07 0.07 61 1012.2
20260508163031 51 233 0.0 0.0 0.00 0.07 0.07 61 1012.4
20260508161523 50 167 0.0 0.9 0.00 0.07 0.07 63 1012.6
20260508160024 49 127 0.0 0.0 0.00 0.07 0.07 69 1012.6
20260508154519 48 204 0.0 0.0 0.00 0.07 0.07 71 1012.6
20260508153016 47 24 0.0 0.0 0.00 0.07 0.07 73 1012.6
20260508151513 46 266 0.0 0.9 0.00 0.07 0.07 78 1012.6
20260508150027 45 81 0.0 0.0 0.00 0.07 0.07 79 1012.5
20260508144506 44 48 0.0 0.9 0.00 0.07 0.07 83 1012.5
20260508143009 44 168 0.0 0.0 0.00 0.07 0.07 88 1012.5
20260508141501 43 160 0.0 0.0 0.00 0.07 0.07 89 1012.4
20260508140118 42 219 0.0 0.0 0.00 0.07 0.07 90 1012.6
20260508134600 42 124 0.0 0.0 0.02 0.07 0.07 91 1012.8
20260508133108 42 323 0.0 0.0 0.03 0.07 0.07 93 1012.8
20260508131602 41 184 0.0 0.0 0.05 0.07 0.07 94 1012.7
20260508124556 41 34 0.0 0.0 0.04 0.05 0.05 95 1012.8
20260508123055 41 191 0.0 0.0 0.03 0.04 0.04 95 1012.5
20260508121553 41 77 0.0 0.0 0.01 0.02 0.02 97 1012.3
20260508120050 41 167 0.0 0.0 0.00 0.01 0.01 96 1012.0
20260508114547 40 167 0.0 0.0 0.00 0.01 0.01 96 1011.8
20260508113046 40 167 0.0 0.0 0.00 0.01 0.01 96 1011.6
20260508111553 40 167 0.0 0.0 0.00 0.01 0.01 96 1011.3
20260508110045 39 167 0.0 0.0 0.00 0.01 0.01 96 1011.1
20260508104544 39 167 0.0 0.0 0.00 0.01 0.01 96 1011.1
20260508103049 39 167 0.0 0.0 0.00 0.01 0.01 96 1011.0
20260508101547 39 167 0.0 0.0 0.00 0.01 0.01 96 1011.1
20260508100042 39 167 0.0 0.0 0.00 0.01 0.01 96 1011.3
20260508094543 39 166 0.0 0.0 0.00 0.01 0.01 96 1011.4
20260508093041 39 211 0.0 0.0 0.00 0.01 0.01 96 1011.5
20260508091548 38 169 0.0 0.0 0.00 0.01 0.01 96 1011.6